Location: Sternwarte ZA, Rosenfeld-Brittheim
(48.2889°N, 8.6789°E)
Time: 05:57:11
(UTC+02:00)

ISS - Pass Details

Date: 30 March 2020
Orbit: 417 x 423 km, 51.6° (Epoch: 29 March)

Event Time Altitude Azimuth Distance (km) Brightness Sun altitude
Rises 22:31:55 0° 291° (WNW) 2,363 1.2 -24.8°
Reaches altitude 10° 22:34:04 10° 284° (WNW) 1,497 -0.1 -25.1°
Enters shadow 22:35:41 24° 270° (W) 906 -1.6 -25.3°
